Regional Weather Roundup
Issued by NWS Charleston, SC

Current Version | Previous Version | Text Only | Print | Product List | Glossary Off
Versions: 1 2 3 4 5 6 7 8 9 10 11 12 13 14 15 16 17 18 19 20 21 22 23 24 25 26 27 28 29 30 31 32 33 34 35 36 37 38 39 40 41 42 43 44 45 46 47 48 49 50

000
ASUS42 KCHS 061912
RWRCHS

REGIONAL WEATHER ROUNDUP
NATIONAL WEATHER SERVICE CHARLESTON SC
300 PM EDT MON JUL 06 2015

NOTE: "FAIR" INDICATES FEW OR NO CLOUDS BELOW 12,000 FEET WITH NO
SIGNIFICANT WEATHER AND/OR OBSTRUCTIONS TO VISIBILITY.

NOT ALL STATIONS ARE QUALITY CONTROLLED BY THE NATIONAL
WEATHER SERVICE. USE DATA WITH CAUTION...ESPECIALLY
DEWPOINT OBSERVATIONS.

SCZ027-030-031-034>040-042>050-062000-
...SOUTHEAST SOUTH CAROLINA...

CITY           SKY/WX    TMP DP  RH WIND       PRES   REMARKS
N CHARLESTON   FAIR      87  69  54 W10       30.12F HX  91
WATERFRONT PAR   N/A     83  75  76 S7        30.10F HX  90
MOUNT PLEASANT LGT RAIN  86  75  70 S6        30.12F HX  95
JOHNS ISLAND   MOCLDY    84  75  74 S10       30.13S HX  92
PINOPOLIS      NOT AVBL
MONCKS CORNER  FAIR      86  70  58 CALM      30.12F HX  90
SUMMERVILLE    MOCLDY    84  73  70 S5        30.13F HX  91
BEAUFORT MCAS  PTSUNNY   85  72  65 E5        30.13F HX  91
BEAUFORT ARPT  FAIR      84  72  65 S5        30.13F
HILTON HEAD IS MOSUNNY   81  72  74 NE5       30.16F
WALTERBORO     CLOUDY    82  68  61 S9        30.13
ALLENDALE      FAIR      86  72  62 S6        30.11F HX  92

...SOUTHERN MIDLANDS AND PEE DEE...

CITY           SKY/WX    TMP DP  RH WIND       PRES   REMARKS
GEORGETOWN     NOT AVBL
KINGSTREE      NOT AVBL
ORANGEBURG     CLOUDY    84  70  62 W8        30.12F
BARNWELL       MOCLDY    88  72  58 SW6       30.12F HX  94
AIKEN          NOT AVBL
MANNING        MOCLDY    84  68  58 S7        30.11F
COLUMBIA       FAIR      90  68  48 SW8       30.09F HX  94
SUMTER         FAIR      85  69  58 SW7       30.10F
FLORENCE       FAIR      87  71  58 VRB6      30.10F HX  93
MYRTLE BEACH   MOSUNNY   86  72  62 S14       30.13S HX  92
N MYRTLE BEACH FAIR      84  74  71 S13       30.12S HX  91

$$

GAZ063-065-086>088-099>101-113>116-118-119-134>141-150-062000-
...SOUTHEAST GEORGIA...

CITY           SKY/WX    TMP DP  RH WIND       PRES   REMARKS
SAVANNAH ARPT  PTSUNNY   88  69  53 VRB3      30.12F HX  92
HUNTER AAF     FAIR      87  73  62 SW5       30.10F HX  95
FORT STEWART   FAIR      88  69  53 VRB6      30.11F HX  91
STATESBORO     NOT AVBL
SYLVANIA       FAIR      87  72  60 SW5       30.13F HX  93
CLAXTON        MOCLDY    86  70  58 SW6       30.13F HX  90

...CSRA...CENTRAL AND FAR SOUTHEAST GEORGIA...

CITY           SKY/WX    TMP DP  RH WIND       PRES   REMARKS
THOMSON        PTSUNNY   89  73  58 CALM      30.16F HX  96
AUGUSTA-BUSH   FAIR      87  69  54 SW7       30.10F HX  91
AUGUSTA-DANIEL FAIR      87  69  54 SW7       30.12F HX  91
SWAINSBORO     MOCLDY    86  72  62 W8        30.14F HX  92
VIDALIA        CLOUDY    84  68  58 SW8       30.14F
EASTMAN        CLOUDY    85  70  61 W8        30.17F
HAZLEHURST     FAIR      86  69  55 CALM      30.13F HX  90
ALMA           FAIR      88  70  55 MISG      30.14F HX  93
WAYCROSS       FAIR      91  72  52 W8        30.14F HX  98
JESUP          FAIR      90  72  55 W7        30.13F HX  96
BAXLEY         PTSUNNY   86  70  58 W6        30.13F HX  90
BRUNSWICK      PTSUNNY   88  70  55 SW5       30.15F HX  92
SAINT SIMONS   NOT AVBL

$$

SCZ027-028-034-036>038-045-046-048>050-GAZ119-141-062000-
...LAKE AND SUPPLEMENTAL COASTAL OBSERVATIONS...

STATION/POSITION TIME  TEMP    WIND        PRES    WAVE   SWELL
                       AIR SEA DIR/SP/G            HT/PER HT/PER/DIR
                 (UTC) (F)     (DEG/KT/KT) (MB)    (FT/S) (FT/S/D)
UPR LAKE MARION  NOT AVBL
WINYAH BAY       NOT AVBL
LAKE MURRAY      1800   85     190/  5/  6 1019.0F
ACE BASIN NERRS  NOT AVBL
FORT PULASKI     1800   81 83  160/  6/  8 1021.5F
SAPELO ISLAND    1800   86     230/  3     1021.0S

$$

ANZ835-935-AMZ111-154-330-350-352-354-370-450-454-472-062000-
...C-MAN AND BUOY OBSERVATIONS...

STATION/POSITION TIME  TEMP    WIND        PRES    WAVE   SWELL
                       AIR SEA DIR/SP/G            HT/PER HT/PER/DIR
                 (UTC) (F)     (DEG/KT/KT) (MB)    (FT/S) (FT/S/D)
BUOY 41004       1850   80 83  230/  8/ 10 1020.3F   3/ 9   2/ 9
BUOY 41008       1850   76 81  170/  8/  8 1021.3F   2/ 9   2/120/ 9
FOLLY BEACH CMAN 1800   79     200/ 10/ 12 1020.8F
CAPERS NEARSHORE 1808   80     220/ 10/ 12 1020.8F
FRIPP NEARSHORE  1800   80     190/  4/  6 1020.9F


STATION/POSITION TIME  TEMP    WIND        PRES    WAVE   SWELL
                       AIR SEA DIR/SP/G            HT/PER HT/PER/DIR
                 (UTC) (F)     (DEG/KT/KT) (MB)    (FT/S) (FT/S/D)
5E ST. MARYS GA  1821      78                N/A     2/10
FRYING PAN BUOY  1850   81 80  210/ 10/ 12 1020.9F   3/ 5   2/190/ 5
BUOY 41025       1850   81 83  190/ 16/ 17 1020.5F   3/ 8   2/120/ 8
CAPE LOOKOUT NC  1800   80     170/ 10/ 11 1020.6F
BUOY 41002       1850   82 80  190/ 10/ 12 1023.3R   4/ 8   3/140/ 8
BUOY 41010       1820   81 84  130/  8/  8 1022.5F
ST AUGUSTINE FL  1900   77 72  110/  7/  8 1022.2F


$$



USA.gov is the U.S. government's official web portal to all federal, state and local government web resources and services.